FW4608 Weather Reports


time (UTC)temp
C
wind
direction
speed
KPH
gust
KPH
rain 1hr
cm
rain 24hr
cm
rain mn
cm
humidity
%
barometer
mb
20260903233521 27 347 0.0 0.0 0.00 0.66 0.66 88 1014.0
20260903233021 27 350 0.0 0.0 0.00 0.66 0.66 88 1014.1
20260903232519 27 350 0.0 0.0 0.00 0.66 0.66 87 1014.2
20260903232019 27 348 0.0 0.0 0.00 0.66 0.66 87 1014.1
20260903231518 27 321 0.0 0.0 0.00 0.66 0.66 87 1014.0
20260903231017 27 323 0.0 0.0 0.00 0.66 0.66 87 1014.1
20260903230517 27 323 0.0 0.0 0.00 0.66 0.66 87 1014.3
20260903230016 28 323 0.0 0.0 0.00 0.66 0.66 87 1014.3
20260903225518 28 323 0.0 0.0 0.00 0.66 0.66 87 1014.1
20260903225018 28 323 0.0 0.0 0.00 0.66 0.66 87 1013.9
20260903224515 28 323 0.0 0.0 0.00 0.66 0.66 86 1013.9
20260903224016 28 321 0.0 0.0 0.00 0.66 0.66 86 1013.9
20260903223513 28 321 0.0 0.0 0.00 0.66 0.66 86 1013.8
20260903223011 28 308 0.0 0.0 0.00 0.66 0.66 86 1013.7
20260903222515 28 308 0.0 0.0 0.00 0.66 0.66 87 1013.7
20260903222013 28 308 0.0 0.0 0.00 0.66 0.66 87 1013.6
20260903221512 28 308 0.0 0.0 0.00 0.66 0.66 88 1013.5
20260903221010 27 308 0.0 0.0 0.00 0.66 0.66 88 1013.4
20260903220513 27 308 0.0 0.0 0.00 0.66 0.66 88 1013.5
20260903220012 27 308 0.0 0.0 0.00 0.66 0.66 88 1013.5
20260903215510 27 308 0.0 0.0 0.00 0.76 0.66 88 1013.5
20260903215010 27 308 0.0 0.0 0.00 0.76 0.66 88 1013.5
20260903214512 27 308 0.0 0.0 0.00 0.76 0.66 88 1013.4
20260903214016 27 308 0.0 0.0 0.00 0.76 0.66 88 1013.3
20260903213508 27 308 0.0 0.0 0.00 0.76 0.66 88 1013.5
20260903213006 27 308 0.0 0.0 0.00 0.76 0.66 89 1013.5
20260903212507 27 308 0.0 0.0 0.00 0.76 0.66 88 1013.3
20260903212009 27 308 0.0 0.0 0.00 0.76 0.66 88 1013.2
20260903211504 27 308 0.0 0.0 0.00 0.76 0.66 88 1013.1
20260903211004 27 308 0.0 0.0 0.00 0.76 0.66 88 1013.2
20260903210502 27 225 0.0 0.0 0.00 0.76 0.66 88 1013.3
20260903210002 27 89 0.0 0.0 0.00 0.79 0.66 88 1013.3
20260903205559 27 46 0.0 0.0 0.00 0.79 0.66 89 1013.5
20260903205059 27 347 0.0 0.0 0.00 0.79 0.66 89 1013.6
20260903204558 27 4 0.0 0.0 0.00 0.79 0.66 88 1013.7
20260903204058 27 308 0.0 0.0 0.00 0.79 0.66 88 1013.8
20260903203557 27 125 0.0 0.0 0.00 0.79 0.66 88 1013.8
20260903203106 27 265 0.0 0.0 0.00 0.79 0.66 89 1013.7
20260903202555 27 324 0.0 0.0 0.03 0.79 0.66 89 1013.7
20260903202057 27 297 0.0 0.0 0.10 0.79 0.66 90 1013.8
20260903201554 27 297 0.0 0.0 0.10 0.79 0.66 90 1013.9
20260903201053 27 300 0.0 0.0 0.10 0.79 0.66 89 1014.0
20260903200554 27 334 0.0 0.0 0.10 0.79 0.66 90 1014.3
20260903200052 27 335 0.0 0.0 0.10 0.79 0.66 90 1014.3
20260903195551 27 343 0.0 0.0 0.10 1.50 0.66 90 1014.4
20260903195051 27 337 0.0 0.0 0.10 1.50 0.66 89 1014.4
20260903194554 27 338 0.0 0.0 0.10 1.50 0.66 89 1014.3
20260903194048 27 338 0.0 0.0 0.10 1.50 0.66 89 1014.6
20260903193548 27 146 0.0 0.0 0.10 1.50 0.66 88 1014.8
20260903193049 28 333 0.0 1.6 0.10 1.50 0.66 87 1014.6
20260903192648 28 333 0.0 1.6 0.08 1.45 0.64 86 1014.7
20260903192046 29 302 0.0 1.6 0.00 1.40 0.56 85 1014.5
20260903191545 29 290 0.0 1.6 0.00 1.40 0.56 85 1014.3
20260903191044 29 165 0.0 3.2 0.00 1.40 0.56 85 1014.3
20260903190546 29 139 0.0 1.6 0.00 1.40 0.56 85 1014.6
20260903190043 29 98 0.0 1.6 0.00 1.40 0.56 84 1014.6
20260903185542 30 307 0.0 0.0 0.00 1.42 0.56 85 1014.6
20260903185042 30 314 0.0 0.0 0.00 1.42 0.56 85 1014.6
20260903184541 30 295 0.0 0.0 0.00 1.42 0.56 85 1014.6
20260903184038 30 8 0.0 1.6 0.00 1.42 0.56 86 1014.6
20260903183537 30 301 0.0 1.6 0.00 1.42 0.56 86 1014.6
20260903183036 30 328 0.0 0.0 0.00 1.42 0.56 86 1014.8
20260903182535 30 139 0.0 0.0 0.00 1.42 0.56 87 1014.9
20260903182033 29 166 0.0 1.6 0.00 1.42 0.56 88 1014.9
20260903181533 29 307 0.0 3.2 0.00 1.42 0.56 87 1015.1
20260903181030 29 312 0.0 3.2 0.00 1.42 0.56 87 1015.2
20260903180528 28 245 0.0 3.2 0.00 1.42 0.56 89 1015.4
20260903180032 28 319 0.0 3.2 0.00 1.42 0.56 88 1015.4
20260903175525 28 27 0.0 3.2 0.00 1.42 0.56 89 1015.4
20260903175025 28 37 0.0 1.6 0.00 1.42 0.56 89 1015.5
20260903174523 28 147 0.0 4.8 0.00 1.42 0.56 90 1015.5
20260903174022 28 262 0.0 4.8 0.00 1.42 0.56 89 1015.5
20260903173525 28 276 0.0 6.4 0.00 1.42 0.56 91 1015.6
20260903173019 27 113 0.0 6.4 0.00 1.42 0.56 93 1015.6
20260903172518 27 60 0.0 6.4 0.00 1.42 0.56 93 1015.7
20260903172017 27 227 0.0 3.2 0.00 1.42 0.56 95 1015.7
20260903171526 26 307 0.0 3.2 0.00 1.42 0.56 95 1015.8
20260903171018 26 309 0.0 1.6 0.00 1.42 0.56 95 1015.8
20260903170515 26 309 0.0 0.0 0.05 1.42 0.56 95 1016.0
20260903170031 26 309 0.0 0.0 0.08 1.42 0.56 95 1016.1
20260903165517 25 309 0.0 0.0 0.13 1.42 0.56 95 1016.3
20260903165015 25 309 0.0 0.0 0.20 1.42 0.56 95 1016.4
20260903164517 25 309 0.0 0.0 0.33 1.42 0.56 95 1016.3
20260903164013 25 309 0.0 0.0 0.33 1.42 0.56 94 1016.3
20260903163511 25 309 0.0 0.0 0.33 1.42 0.56 94 1016.3
20260903163020 25 309 0.0 0.0 0.46 1.42 0.56 94 1016.3
20260903162510 25 309 0.0 0.0 0.48 1.42 0.56 94 1016.3
20260903162010 24 309 0.0 0.0 0.48 1.42 0.56 94 1016.2
20260903161510 24 309 0.0 3.2 0.48 1.42 0.56 94 1016.2
20260903161009 24 13 0.0 3.2 0.48 1.42 0.56 94 1016.4
20260903160509 24 165 0.0 4.8 0.43 1.37 0.51 94 1016.4
20260903160008 24 3 0.0 8.0 0.41 1.35 0.48 93 1016.6
20260903155507 25 281 0.0 11.3 0.33 1.27 0.41 93 1016.7
20260903155006 25 328 1.6 11.3 0.25 1.19 0.33 93 1016.8
20260903154505 25 150 0.0 12.9 0.15 1.09 0.23 93 1017.0
20260903154004 25 103 1.6 12.9 0.18 1.09 0.23 92 1016.9
20260903153502 25 122 1.6 6.4 0.13 1.04 0.20 92 1016.7
20260903153001 26 329 1.6 6.4 0.03 0.94 0.08 93 1016.8
20260903152600 26 39 0.0 1.6 0.03 0.94 0.08 94 1016.6
20260903152058 26 39 0.0 0.0 0.03 0.94 0.08 94 1016.3
20260903151557 26 39 0.0 0.0 0.05 0.94 0.08 93 1016.1
20260903151056 26 39 0.0 0.0 0.08 0.94 0.08 93 1016.2
20260903150555 26 39 0.0 0.0 0.08 0.94 0.08 93 1016.1
20260903150109 26 39 0.0 0.0 0.08 0.94 0.08 93 1016.1
20260903145554 26 39 0.0 0.0 0.08 0.94 0.08 93 1016.0
20260903145052 26 39 0.0 0.0 0.08 0.94 0.08 93 1015.9
20260903144556 26 39 0.0 0.0 0.08 0.94 0.08 93 1015.9
20260903144051 26 39 0.0 0.0 0.05 0.91 0.05 92 1016.0
20260903143551 26 39 0.0 1.6 0.05 0.91 0.05 91 1015.9
20260903143049 26 39 0.0 1.6 0.05 0.91 0.05 91 1015.8
20260903142548 26 224 0.0 3.2 0.05 0.91 0.05 91 1015.8
20260903142046 27 101 0.0 3.2 0.05 0.91 0.05 90 1015.8
20260903141548 27 151 0.0 3.2 0.03 0.89 0.03 90 1015.7
20260903141048 27 141 0.0 3.2 0.00 0.86 0.00 90 1015.8
20260903140546 27 287 0.0 1.6 0.00 0.86 0.00 90 1015.7
20260903140044 27 287 0.0 1.6 0.00 0.86 0.00 90 1015.7
20260903135543 27 182 0.0 4.8 0.00 0.86 0.00 90 1015.9
20260903135042 27 178 0.0 4.8 0.00 0.86 0.00 91 1015.8
20260903134550 27 144 0.0 1.6 0.00 0.86 0.00 93 1015.9
20260903134042 27 144 0.0 1.6 0.00 0.86 0.00 93 1015.9
20260903133540 26 276 0.0 1.6 0.00 0.86 0.00 93 1015.8
20260903133038 26 224 0.0 1.6 0.00 0.86 0.00 94 1015.8
20260903132534 26 277 0.0 1.6 0.00 0.86 0.00 94 1015.8
20260903132033 26 254 0.0 1.6 0.00 0.86 0.00 95 1015.8
20260903131532 26 258 0.0 1.6 0.00 0.86 0.00 95 1015.7
20260903131030 26 257 0.0 0.0 0.00 0.86 0.00 95 1015.7
20260903130529 26 258 0.0 1.6 0.00 0.86 0.00 95 1015.7
20260903130027 26 258 0.0 1.6 0.00 0.86 0.00 95 1015.7
20260903125528 26 241 0.0 1.6 0.00 0.86 0.00 95 1015.7
20260903125026 25 49 0.0 1.6 0.00 0.86 0.00 95 1015.7
20260903124525 25 49 0.0 1.6 0.00 0.86 0.00 95 1015.7
20260903124025 25 49 0.0 1.6 0.00 0.86 0.00 96 1015.7
20260903123523 25 352 0.0 1.6 0.00 0.86 0.00 96 1015.7
20260903123032 25 326 0.0 1.6 0.00 0.86 0.00 96 1015.8
20260903122523 25 265 0.0 1.6 0.00 0.86 0.00 96 1015.8
20260903122020 25 264 0.0 0.0 0.00 0.86 0.00 96 1015.7
20260903121526 25 264 0.0 0.0 0.00 0.86 0.00 96 1015.7
20260903121017 25 264 0.0 0.0 0.00 0.86 0.00 96 1015.5
20260903120520 25 264 0.0 1.6 0.00 0.86 0.00 96 1015.5
20260903120015 25 264 0.0 1.6 0.00 0.86 0.00 96 1015.4
20260903115513 25 264 0.0 0.0 0.00 0.86 0.00 95 1015.3
20260903115013 25 264 0.0 0.0 0.00 0.86 0.00 95 1015.2
20260903114512 25 264 0.0 0.0 0.00 0.86 0.00 95 1015.1
20260903114011 25 264 0.0 0.0 0.00 0.86 0.00 95 1015.1
20260903113511 25 264 0.0 0.0 0.00 0.86 0.00 95 1015.1
20260903113010 25 264 0.0 0.0 0.00 0.86 0.00 95 1015.0
20260903112511 25 264 0.0 0.0 0.00 0.86 0.00 95 1014.9
20260903112009 25 264 0.0 0.0 0.00 0.86 0.00 95 1014.8
20260903111511 25 264 0.0 0.0 0.00 0.86 0.00 95 1014.7
20260903111010 25 264 0.0 0.0 0.00 0.86 0.00 95 1014.7
20260903110508 25 264 0.0 0.0 0.00 0.86 0.00 95 1014.6
20260903110007 25 264 0.0 0.0 0.00 0.86 0.00 95 1014.5
20260903105508 25 264 0.0 0.0 0.00 0.86 0.00 95 1014.4
20260903105007 25 264 0.0 0.0 0.00 0.86 0.00 95 1014.5
20260903104507 25 264 0.0 0.0 0.00 0.86 0.00 95 1014.4
20260903104006 25 264 0.0 0.0 0.00 0.86 0.00 95 1014.4
20260903103505 25 264 0.0 0.0 0.00 0.86 0.00 95 1014.3
20260903103004 25 264 0.0 0.0 0.00 0.86 0.00 95 1014.3
20260903102504 25 264 0.0 0.0 0.00 0.86 0.00 95 1014.4
20260903102004 25 264 0.0 0.0 0.00 0.86 0.00 95 1014.3
20260903101502 25 264 0.0 0.0 0.00 0.86 0.00 95 1014.3
20260903101005 25 264 0.0 0.0 0.00 0.86 0.00 95 1014.2
20260903100502 25 264 0.0 0.0 0.00 0.86 0.00 95 1014.2
20260903100001 25 264 0.0 0.0 0.00 0.86 0.00 95 1014.2
20260903095600 25 264 0.0 0.0 0.00 0.86 0.00 95 1014.1
20260903095100 25 264 0.0 0.0 0.00 0.86 0.00 95 1014.2
20260903094612 25 264 0.0 0.0 0.00 0.86 0.00 95 1014.0
20260903094059 25 264 0.0 0.0 0.00 0.86 0.00 95 1013.9
20260903093556 25 264 0.0 0.0 0.00 0.86 0.00 95 1013.9
20260903093057 25 264 0.0 0.0 0.00 0.86 0.00 95 1013.9
20260903092557 25 264 0.0 0.0 0.00 0.86 0.00 95 1013.9
20260903092057 25 264 0.0 0.0 0.00 0.86 0.00 95 1013.9
20260903091612 25 264 0.0 0.0 0.00 0.86 0.00 95 1013.9
20260903091054 25 264 0.0 0.0 0.00 0.86 0.00 95 1013.9
20260903090554 25 264 0.0 0.0 0.00 0.86 0.00 95 1013.9
20260903090057 25 264 0.0 0.0 0.00 0.86 0.00 95 1013.9
20260903085553 25 264 0.0 0.0 0.00 0.86 0.00 95 1013.9
20260903085052 25 264 0.0 0.0 0.00 0.86 0.00 95 1013.9
20260903084554 25 264 0.0 0.0 0.00 0.86 0.00 95 1014.0
20260903084054 25 264 0.0 0.0 0.00 0.86 0.00 95 1013.9
20260903083550 25 264 0.0 0.0 0.00 0.86 0.00 95 1014.0
20260903083049 25 264 0.0 0.0 0.00 0.86 0.00 95 1014.0
20260903082547 25 264 0.0 0.0 0.00 0.86 0.00 95 1014.1
20260903082047 25 264 0.0 0.0 0.00 0.86 0.00 95 1014.1
20260903081546 25 264 0.0 0.0 0.00 0.86 0.00 95 1014.2
20260903081046 25 264 0.0 0.0 0.00 0.86 0.00 95 1014.2
20260903080544 25 264 0.0 0.0 0.00 0.86 0.00 95 1014.2
20260903080048 25 264 0.0 0.0 0.00 0.86 0.00 95 1014.3
20260903075543 25 264 0.0 0.0 0.00 0.86 0.00 95 1014.2
20260903075042 25 264 0.0 0.0 0.00 0.86 0.00 95 1014.2
20260903074546 25 264 0.0 0.0 0.00 0.86 0.00 95 1014.3
20260903074041 25 264 0.0 0.0 0.00 0.86 0.00 95 1014.2
20260903073539 25 264 0.0 0.0 0.00 0.86 0.00 95 1014.3
20260903073038 25 264 0.0 0.0 0.00 0.86 0.00 95 1014.3
20260903072536 25 264 0.0 0.0 0.00 0.86 0.00 95 1014.3
20260903072036 25 264 0.0 0.0 0.00 0.86 0.00 95 1014.5
20260903071535 25 264 0.0 0.0 0.00 0.86 0.00 95 1014.6
20260903071033 25 264 0.0 0.0 0.00 0.86 0.00 95 1014.6
20260903070533 25 264 0.0 0.0 0.00 0.86 0.00 95 1014.6
20260903070033 25 264 0.0 0.0 0.00 0.86 0.00 95 1014.5
20260903065532 25 264 0.0 0.0 0.00 0.86 0.00 95 1014.5
20260903065032 25 264 0.0 0.0 0.00 0.86 0.00 95 1014.6
20260903064531 25 264 0.0 0.0 0.00 0.86 0.00 95 1014.6
20260903064030 25 264 0.0 0.0 0.00 0.86 0.00 95 1014.6
20260903063531 25 264 0.0 0.0 0.00 0.86 0.00 95 1014.6
20260903063030 25 264 0.0 0.0 0.00 0.86 0.00 95 1014.7
20260903062526 25 264 0.0 0.0 0.00 0.86 0.00 95 1014.8
20260903062024 25 264 0.0 0.0 0.00 0.86 0.00 95 1014.8
20260903061534 25 264 0.0 0.0 0.00 0.86 0.00 95 1015.0
20260903061027 25 264 0.0 0.0 0.00 0.86 0.00 95 1015.0
20260903060522 25 264 0.0 0.0 0.00 0.86 0.00 95 1015.1
20260903060034 25 264 0.0 0.0 0.00 0.86 0.00 95 1015.1
20260903055520 25 264 0.0 0.0 0.00 0.86 0.00 95 1015.1
20260903055020 25 264 0.0 0.0 0.00 0.86 0.00 95 1015.2
20260903054521 25 264 0.0 0.0 0.00 0.86 0.00 95 1015.3
20260903053504 25 264 0.0 0.0 0.00 0.86 0.00 95 1015.4
20260903053117 25 264 0.0 0.0 0.00 0.86 0.00 95 1015.3
20260903052503 25 264 0.0 0.0 0.00 0.86 0.00 95 1015.3
20260903052002 25 264 0.0 0.0 0.00 0.86 0.00 95 1015.5
20260903051635 25 264 0.0 0.0 0.00 0.86 0.00 95 1015.5
20260903045553 25 264 0.0 0.0 0.00 0.86 0.00 94 1015.3
20260903045053 25 264 0.0 0.0 0.00 0.86 0.00 94 1015.5
20260903044559 25 264 0.0 0.0 0.00 0.86 0.00 94 1015.5
20260903044052 25 264 0.0 0.0 0.00 0.86 0.00 94 1015.5
20260903043549 25 264 0.0 0.0 0.00 0.86 0.00 94 1015.4
20260903043106 25 264 0.0 0.0 0.00 0.86 0.00 94 1015.5
20260903042547 25 264 0.0 0.0 0.00 0.86 0.00 94 1015.4
20260903042051 25 264 0.0 0.0 0.00 0.86 0.00 94 1015.4
20260903041551 25 264 0.0 0.0 0.00 0.86 0.00 94 1015.5
20260903041047 25 264 0.0 0.0 0.00 0.86 0.00 94 1015.5
20260903040544 25 264 0.0 0.0 0.00 0.86 0.00 94 1015.4
20260903040045 25 264 0.0 0.0 0.00 0.86 0.00 94 1015.5
20260903035540 25 264 0.0 0.0 0.00 0.86 0.86 94 1015.5
20260903035040 25 264 0.0 0.0 0.00 0.86 0.86 94 1015.5
20260903034540 25 264 0.0 0.0 0.00 0.86 0.86 94 1015.6
20260903034039 25 264 0.0 0.0 0.00 0.86 0.86 94 1015.7
20260903033538 25 264 0.0 0.0 0.00 0.86 0.86 94 1015.7
20260903033038 25 264 0.0 0.0 0.00 0.86 0.86 94 1015.7
20260903032537 25 264 0.0 0.0 0.00 0.86 0.86 94 1015.7
20260903032037 25 264 0.0 0.0 0.00 0.86 0.86 94 1015.8
20260903031536 25 264 0.0 0.0 0.00 0.86 0.86 94 1015.8
20260903031035 25 264 0.0 0.0 0.00 0.86 0.86 94 1015.8
20260903030535 25 264 0.0 0.0 0.00 0.86 0.86 94 1015.8
20260903030035 25 264 0.0 0.0 0.00 0.86 0.86 94 1015.8
20260903025535 25 264 0.0 0.0 0.00 0.86 0.86 94 1015.9
20260903025035 25 264 0.0 0.0 0.00 0.86 0.86 94 1015.9
20260903024533 25 264 0.0 0.0 0.00 0.86 0.86 94 1016.1
20260903024032 25 264 0.0 0.0 0.00 0.86 0.86 94 1016.1
20260903023530 25 264 0.0 0.0 0.00 0.86 0.86 94 1016.1
20260903023030 25 264 0.0 0.0 0.00 0.86 0.86 94 1015.9
20260903022532 25 264 0.0 0.0 0.00 0.86 0.86 93 1016.0
20260903022029 25 264 0.0 0.0 0.00 0.86 0.86 93 1016.1
20260903021528 25 264 0.0 0.0 0.00 0.86 0.86 93 1016.1
20260903021031 25 264 0.0 0.0 0.00 0.86 0.86 93 1016.1
20260903020526 25 264 0.0 0.0 0.00 0.86 0.86 93 1016.0
20260903020026 25 264 0.0 0.0 0.00 0.86 0.86 93 1016.0
20260903015527 25 264 0.0 0.0 0.00 0.86 0.86 93 1016.0
20260903015026 25 264 0.0 0.0 0.00 0.86 0.86 93 1016.1
20260903014525 25 264 0.0 0.0 0.00 0.86 0.86 93 1016.0
20260903014024 25 264 0.0 0.0 0.00 0.86 0.86 93 1015.9
20260903013524 25 264 0.0 0.0 0.00 0.86 0.86 93 1015.9
20260903013024 25 264 0.0 0.0 0.00 0.86 0.86 92 1015.8
20260903012526 25 264 0.0 0.0 0.00 0.86 0.86 92 1015.8
20260903012024 25 264 0.0 0.0 0.00 0.86 0.86 92 1015.8
20260903011521 25 264 0.0 0.0 0.00 0.86 0.86 92 1016.0
20260903011022 25 264 0.0 0.0 0.00 0.86 0.86 92 1015.9
20260903010520 25 264 0.0 0.0 0.00 0.86 0.86 92 1016.0
20260903010020 25 264 0.0 0.0 0.00 0.86 0.86 92 1016.0
20260903005519 25 264 0.0 0.0 0.00 0.86 0.86 92 1015.8
20260903005019 25 264 0.0 0.0 0.00 0.86 0.86 91 1015.6
20260903004523 25 264 0.0 0.0 0.00 0.86 0.86 91 1015.6
20260903004017 25 264 0.0 0.0 0.00 0.86 0.86 91 1015.5
20260903003517 25 264 0.0 0.0 0.00 0.86 0.86 91 1015.5
20260903003020 26 264 0.0 0.0 0.00 0.86 0.86 91 1015.6
20260903002517 26 264 0.0 1.6 0.00 0.86 0.86 91 1015.6
20260903002014 26 264 0.0 1.6 0.00 0.86 0.86 91 1015.5
20260903001519 26 264 0.0 1.6 0.00 0.86 0.86 91 1015.5
20260903001014 26 330 0.0 4.8 0.00 0.86 0.86 91 1015.6
20260903000512 26 333 0.0 4.8 0.00 0.86 0.86 91 1015.6
20260903000011 26 324 0.0 3.2 0.00 0.86 0.86 91 1015.5
20260902235511 26 98 0.0 0.0 0.00 0.86 0.86 91 1015.4
20260902235010 26 98 0.0 0.0 0.00 0.86 0.86 91 1015.5
20260902234510 26 107 0.0 1.6 0.00 0.86 0.86 91 1015.4
20260902234012 26 94 0.0 1.6 0.00 0.86 0.86 91 1015.4